Regional Weather Roundup
Issued by NWS Northern Indiana

Home | Current Version | Previous Version | Text Only | Print | Product List | Glossary Off
Versions: 1 2 3 4 5 6 7 8 9 10 11 12 13 14 15 16 17 18 19 20 21 22 23 24 25 26 27 28 29 30 31 32 33 34 35 36 37 38 39 40 41 42 43 44 45 46 47 48 49 50

000
ASUS43 KIWX 270010
RWRIWX

KIWX WEATHER ROUNDUP
NATIONAL WEATHER SERVICE NORTHERN INDIANA
800 PM EDT TUE JUL 26 2016

NOTE: "FAIR" INDICATES FEW OR NO CLOUDS BELOW 12,000 FEET WITH NO
SIGNIFICANT WEATHER AND/OR OBSTRUCTIONS TO VISIBILITY.

* THESE STATIONS ARE NOT UNDER NWS QUALITY CONTROL. THEY ALSO MAY NOT
  REPORT WEATHER SUCH AS PRECIPITATION OR FOG.

INZ001>027-270100-
NORTHERN INDIANA

CITY           SKY/WX    TMP DP  RH WIND       PRES   REMARKS
GARY*          MOSUNNY   82  66  57 N8        30.02R
VALPARAISO     SUNNY     82  63  52 N3        30.03R
6HR MIN TEMP:  82; 6HR MAX TEMP:  87;

MICHIGAN CITY* SUNNY     79  64  61 N5        30.02S
LAPORTE*       SUNNY     82  63  51 N5        30.03R
6HR MIN TEMP:  82; 6HR MAX TEMP:  87;

KNOX*          MOSUNNY   79  59  50 CALM      30.01S
SOUTH BEND     PTSUNNY   82  63  52 N6        30.02S
6HR MIN TEMP:  81; 6HR MAX TEMP:  87;

ELKHART*       SUNNY     82  70  65 N7        30.02R
GOSHEN         SUNNY     84  58  40 E5        30.01S
6HR MIN TEMP:  82; 6HR MAX TEMP:  87;

MONTICELLO*    SUNNY     81  65  58 CALM      30.00S
6HR MIN TEMP:  79; 6HR MAX TEMP:  84;

LOGANSPORT*    SUNNY     81  64  57 CALM      30.02S
ROCHESTER*     SUNNY     82  66  57 CALM      30.02S
WARSAW*        SUNNY     81  63  54 CALM      30.02R
ANGOLA*          N/A     84  81  89 W5        30.01S HX  98
FORT WAYNE     MOSUNNY   83  64  52 SW7       30.01R
6HR MIN TEMP:  83; 6HR MAX TEMP:  88;

HUNTINGTON*    SUNNY     81  64  55 S5        30.01S
6HR MIN TEMP:  80; 6HR MAX TEMP:  84;

PERU/GRISSOM   PTSUNNY   83  63  50 N5        30.00S
6HR MIN TEMP:  81; 6HR MAX TEMP:  86;

MARION*        SUNNY     81  64  56 CALM      30.02S HAZE
6HR MIN TEMP:  59; 6HR MAX TEMP:  90;


$$
INZ028>050-270100-
CENTRAL INDIANA

CITY           SKY/WX    TMP DP  RH WIND       PRES   REMARKS
LAFAYETTE      SUNNY     81  68  64 CALM      30.00S
6HR MIN TEMP:  80; 6HR MAX TEMP:  85;

KOKOMO*        MOSUNNY   84  63  48 N5        30.01S
6HR MIN TEMP:  81; 6HR MAX TEMP:  88;

MUNCIE*        MOSUNNY   82  65  56 CALM      30.02R
6HR MIN TEMP:  81; 6HR MAX TEMP:  85;

INDIANAPOLIS   PTSUNNY   81  65  58 N8        30.02R
6HR MIN TEMP:  75; 6HR MAX TEMP:  84; 6HR PCP: TRACE;


$$
MIZ043>046-050>051-056>058-064>065-071>073-077>080-270100-
SOUTHWEST LOWER MICHIGAN

CITY           SKY/WX    TMP DP  RH WIND       PRES   REMARKS
BATTLE CREEK   PTSUNNY   80  67  64 W8        30.02R
6HR MIN TEMP:  79; 6HR MAX TEMP:  83;

BENTON HARBOR  SUNNY     80  64  58 VRB3      30.01S
6HR MIN TEMP:  80; 6HR MAX TEMP:  84;

COLDWATER*     SUNNY     82  59  45 CALM      30.02R
6HR MIN TEMP:  82; 6HR MAX TEMP:  85;

HOLLAND        SUNNY     79  64  60 W6        30.02S
6HR MIN TEMP:  79; 6HR MAX TEMP:  84;

GRAND RAPIDS   MOSUNNY   82  61  48 W13       30.01R
6HR MIN TEMP:  82; 6HR MAX TEMP:  87;

KALAMAZOO      PTSUNNY   82  64  54 NW10      30.02R
6HR MIN TEMP:  80; 6HR MAX TEMP:  86;

STURGIS*       SUNNY     81  62  52 CALM      30.01S
6HR MIN TEMP:  79; 6HR MAX TEMP:  85;

THREE RIVERS*  FAIR      84  62  47 W5        30.02R
6HR MIN TEMP:  82; 6HR MAX TEMP:  85;


$$
OHZ001>008-015>018-024>025-270100-
NORTHWEST OHIO

CITY           SKY/WX    TMP DP  RH WIND       PRES   REMARKS
DEFIANCE       CLEAR     84  62  47 E3        30.00R
6HR MIN TEMP:  84; 6HR MAX TEMP:  88;

FINDLAY        PTCLDY    84  61  45 E6        30.00R
6HR MIN TEMP:  84; 6HR MAX TEMP:  88;

TOLEDO EXPRESS PTCLDY    80  65  59 S3        30.00R
6HR MIN TEMP:  78; 6HR MAX TEMP:  87;

TOLEDO METCALF CLEAR     83  59  44 SE8       30.01R
6HR MIN TEMP:  82; 6HR MAX TEMP:  86;

LIMA           MOCLDY    82  68  62 CALM      30.01S
6HR MIN TEMP:  81; 6HR MAX TEMP:  85;


$$
AND FOR LAKE MICHIGAN COASTAL AND OPEN LAKE BUOY OBSERVATIONS

STATION/POSITION TEMP    WIND        PRES    VSBY  WAVE
                 AIR SEA DIR/SP/G                  HT/PER
                 (F)     (DEG/KT/KT) (MB)    (MI)  (FT/S)
CALUMET HARBOR                       1015.5
MICHIGAN CITY     77      30/  7/  8   N/A
BURNS HARBOR      80      60/  7/  8 1016.6S
SAINT JOSEPH      79      10/  5/  7 1017.3S
SOUTH LAKE BUOY   78 78   CALM  /  2 1015.5S         0
4 MI NW BRIDGMAN  77 77   20/  4/  4 1016.0R         0
MICHIGAN CITY     77 78   50/  4/  6   N/A           0

$$
&&




USA.gov is the U.S. government's official web portal to all federal, state and local government web resources and services.